Location: Observatoire
(46.1952°N, 5.3391°E)
Time: 21:50:42
(UTC+01:00)

Tiros 1 despin weight - Pass Details

Date: 24 February 2026
Orbit: 556 x 593 km, 48.2° (Epoch: 9 March)

Event Time Altitude Azimuth Distance (km) Brightness Sun altitude
Rises 18:22:06 0° 288° (WNW) 2,737 ? -1.6°
Reaches altitude 10° 18:24:25 10° 282° (WNW) 1,838 ? -2.0°
Maximum altitude 18:28:26 47° 209° (SSW) 742 ? -2.7°
Drops below altitude 10° 18:32:27 10° 135° (SE) 1,831 ? -3.4°
Sets 18:34:45 0° 130° (SE) 2,726 ? -3.7°
